[[{"header":{"parameterUnit":"m.s-1","parameterCategory":1,"la1":30.2991,"la2":30.254,"lo1":-89.0895,"lo2":-89.0444,"dy":0.0017,"dx":0.0017,"nx":28,"ny":28,"refTime":"2026-01-06T03:00:00:Z","depth":0,"parameterNumber":2,"parameterNumberName":"U-component_of_WINDS"},"data":[0,0,0,0,0,0,0,0,0,0,0,0,0,0,0,0,0,0,0,0,0,0,0,0,0,0,0,0,0,0,0,0,0,0,0,0,0,0,0,0,0,0,0,0,0,0,0,0,0,0,0,0,0,0,0,0,0,0,2.7824,2.7825,0,2.7929,2.793,2.7931,2.7923,2.7922,2.792,2.7919,2.8031,2.8035,2.804,0,0,0,0,0,0,0,0,0,0,0,0,0,2.7623,2.7627,2.7824,2.7825,2.7826,2.7928,2.793,2.7931,2.7924,2.7922,2.792,2.7918,2.803,2.8035,2.804,0,0,0,0,0,0,0,0,0,0,0,0,0,2.7717,2.7628,2.7824,2.7835,2.7837,2.7928,2.793,2.7932,2.7924,2.7922,2.7919,2.7917,2.8028,2.8034,2.8041,2.813,0,0,2.8061,2.8064,0,0,0,0,0,0,0,0,2.7712,2.7725,2.7832,2.7834,2.7837,2.791,2.79,2.7998,2.7925,2.7891,2.7919,2.7916,2.7993,2.8003,2.8028,2.8135,2.814,2.8062,2.8066,2.8069,2.8071,0,0,0,0,0,0,0,2.7706,2.772,2.7865,2.7833,2.7836,2.7837,2.7847,2.7919,2.7954,2.7894,2.7893,2.7906,2.7994,2.8021,2.803,2.8141,2.8062,2.8068,2.8072,2.8075,2.833,2.8332,0,0,0,0,0,0,2.7696,2.7715,2.7862,2.7869,2.7767,2.7842,2.7854,2.7889,2.7953,2.7961,2.7908,2.7905,2.8011,2.8022,2.8034,2.8143,2.8069,2.8075,2.8079,2.8327,2.833,2.8333,0,0,0,0,0,0,2.7691,2.7709,2.7858,2.7792,2.7811,2.7848,2.7887,2.7892,2.7919,2.7964,2.7971,2.7928,2.8009,2.8025,2.8106,2.8147,2.8078,2.8084,2.8324,2.8328,2.8332,2.8362,0,0,0,0,0,0,2.7686,2.7707,2.774,2.7792,2.7814,2.7926,2.789,2.7896,2.793,2.7928,2.7985,2.7992,2.8009,2.8096,2.8113,2.8155,2.809,2.832,2.8326,2.833,2.8357,2.8367,2.8374,0,0,0,0,0,2.7678,2.7745,2.7741,2.7759,2.7855,2.7929,2.7941,2.7957,2.7934,2.7968,2.7997,2.7991,2.814,2.8105,2.8123,2.8168,2.8318,2.8324,2.833,2.8354,2.8365,2.8374,0,0,0,0,0,0,2.7697,2.7752,2.7749,2.7833,2.7876,2.7927,2.797,2.7968,2.802,2.8016,2.8035,2.8048,2.813,2.8158,2.8117,2.8259,2.8226,2.8236,2.8238,2.8249,2.8257,2.8249,2.8095,0,0,0,0,0,2.7711,2.7764,2.781,2.788,2.7902,2.7932,2.7965,2.7974,2.802,2.8038,2.8073,2.8119,2.8177,2.8214,2.827,2.8362,2.8375,2.8402,2.8411,2.8417,2.8426,2.8479,2.8492,2.8354,2.8354,2.8353,0,0,2.774,2.7777,2.7809,2.7885,2.7919,2.7976,2.7948,2.8008,2.8051,2.8048,2.8126,2.8154,2.8207,2.8295,2.8335,2.832,2.8467,2.8425,2.843,2.8435,2.8486,2.8499,2.8511,2.8358,2.8357,2.8356,0,0,2.7822,2.7855,2.7917,2.7953,2.8004,2.8025,2.804,2.8092,2.8109,2.8188,2.8188,2.824,2.8338,2.8377,2.8409,2.8509,2.8506,2.8527,2.8571,2.8622,2.8633,2.8643,2.8679,2.8692,2.8535,2.8535,2.8535,0,2.7852,2.7936,2.7951,2.8012,2.8046,2.8045,2.811,2.8144,2.8212,2.8237,2.8219,2.8343,2.8379,2.8476,2.8501,2.8527,2.8546,2.852,2.863,2.864,2.8649,2.8684,2.8698,2.8537,2.8537,2.8537,2.8537,0,2.7971,2.8029,2.8074,2.8139,2.8179,2.8242,2.8268,2.8307,2.8313,2.8336,2.8418,2.8461,2.8526,2.855,2.8557,2.8649,2.8638,2.8625,2.8592,2.8664,2.8698,2.8711,2.854,2.854,2.8539,2.8538,0,0,2.8066,2.8139,2.8156,2.8186,2.8244,2.829,2.8355,2.8417,2.845,2.8498,2.8554,2.8638,2.8627,2.8663,2.8675,2.872,2.8798,2.8701,2.8703,2.8718,2.8904,2.8914,2.8929,2.8796,2.8799,2.8801,2.89,0,2.8155,2.8266,2.8283,2.8382,2.8438,2.8439,2.8495,2.8538,2.8562,2.8614,2.8642,2.8701,2.8681,2.8703,2.8748,2.8779,2.8836,2.8772,2.885,2.8853,2.8837,2.8947,2.8957,2.9048,2.8913,2.8916,2.8917,0,2.8272,2.8322,2.8427,2.8479,2.8503,2.8553,2.8613,2.8662,2.8712,2.8727,2.8769,2.8775,2.8845,2.881,2.8907,2.8864,2.8897,2.8918,2.8922,2.893,2.8889,2.8958,2.9077,2.9091,2.8938,2.8936,2.8935,0,2.8332,2.8426,2.8501,2.8527,2.859,2.8625,2.8654,2.8701,2.8738,2.8791,2.8816,2.8876,2.891,2.8958,2.8982,2.8954,2.9079,2.9045,2.9094,2.9094,2.912,2.9118,2.9247,2.9141,2.9141,2.9141,2.9141,0,2.8429,2.8493,2.8529,2.8575,2.8648,2.8668,2.874,2.8768,2.8811,2.8864,2.887,2.892,2.8949,2.9004,2.9024,2.9103,2.9118,2.9133,2.9137,2.9132,2.913,2.9154,2.9149,2.9145,2.9144,2.9143,2.9142,0,2.8507,2.8534,2.8616,2.8669,2.8684,2.8736,2.8782,2.8829,2.8853,2.8921,2.8938,2.8977,2.9043,2.9071,2.9153,2.9166,2.9256,2.9256,2.9239,2.924,2.9288,2.9283,2.9437,2.9459,2.9339,2.934,2.9341,0,2.8567,2.8617,2.8675,2.8711,2.874,2.8797,2.8835,2.8858,2.8897,2.8959,2.8999,2.9064,2.9118,2.9224,2.9261,2.9324,2.9325,2.9375,2.9335,2.9329,2.9327,2.9324,2.933,2.9382,2.9383,2.9384,2.9385,0,2.8671,2.8682,2.8735,2.8794,2.8839,2.8887,2.8934,2.8963,2.8993,2.9038,2.9105,2.9146,2.923,2.9296,2.9361,2.9393,2.9395,2.9397,2.9412,2.9408,2.9396,2.9404,2.9259,2.9394,2.9393,2.9392,2.9392,2.9391,2.8743,2.8787,2.8836,2.8896,2.8934,2.8978,2.9024,2.9055,2.911,2.9178,2.9189,2.9261,2.9313,2.9401,2.9435,2.9493,2.9482,2.9503,2.9508,2.9513,2.9516,2.9386,2.9506,2.9505,2.9505,2.9505,2.9505,0,2.8847,2.8879,2.8934,2.8999,2.9047,2.9044,2.9096,2.9137,2.92,2.9247,2.93,2.9378,2.9442,2.9485,2.9551,2.959,2.9592,2.9606,2.9604,2.9611,2.9523,2.9504,2.9603,2.9603,2.9603,2.9603,2.9603,2.9603,2.8907,2.8983,2.9,2.9096,2.9128,2.9197,2.9227,2.9269,2.9307,2.9394,2.9447,2.9474,2.952,2.959,2.965,2.9661,2.9686,2.97,2.9711,2.9628,2.9617,2.9608,2.959,2.9705,2.9705,2.9795,2.9795,2.9796]},{"header":{"parameterUnit":"m.s-1","parameterCategory":1,"la1":30.2991,"la2":30.254,"lo1":-89.0895,"lo2":-89.0444,"dy":0.0017,"dx":0.0017,"nx":28,"ny":28,"refTime":"2026-01-06T03:00:00:Z","depth":0,"parameterNumber":3,"parameterNumberName":"V-component_of_WINDS"},"data":[0,0,0,0,0,0,0,0,0,0,0,0,0,0,0,0,0,0,0,0,0,0,0,0,0,0,0,0,0,0,0,0,0,0,0,0,0,0,0,0,0,0,0,0,0,0,0,0,0,0,0,0,0,0,0,0,0,0,1.7654,1.7654,0,1.7707,1.7707,1.7708,1.772,1.7719,1.7719,1.7719,1.777,1.7771,1.7773,0,0,0,0,0,0,0,0,0,0,0,0,0,1.7559,1.7561,1.7653,1.7654,1.7655,1.7707,1.7707,1.7708,1.772,1.7719,1.7719,1.7718,1.7769,1.7771,1.7773,0,0,0,0,0,0,0,0,0,0,0,0,0,1.7605,1.7562,1.7653,1.7667,1.7669,1.7706,1.7707,1.7708,1.772,1.7719,1.7719,1.7718,1.7769,1.7771,1.7774,1.78,0,0,1.7781,1.7783,0,0,0,0,0,0,0,0,1.7602,1.7608,1.7664,1.7666,1.7668,1.7706,1.7693,1.7739,1.772,1.77,1.7719,1.7718,1.7749,1.7753,1.7764,1.7803,1.7805,1.7782,1.7783,1.7784,1.7785,0,0,0,0,0,0,0,1.7599,1.7606,1.7674,1.7665,1.7667,1.767,1.7675,1.7702,1.7727,1.7702,1.7703,1.7709,1.775,1.7762,1.7765,1.7806,1.7782,1.7784,1.7785,1.7786,1.7869,1.787,0,0,0,0,0,0,1.7594,1.7604,1.7673,1.7676,1.7633,1.7672,1.7678,1.7694,1.7727,1.7731,1.771,1.771,1.7757,1.7762,1.7767,1.7801,1.7784,1.7787,1.7788,1.7869,1.7869,1.787,0,0,0,0,0,0,1.7592,1.76,1.7671,1.764,1.7649,1.7674,1.7692,1.7696,1.7708,1.7733,1.7737,1.7717,1.7757,1.7764,1.7792,1.7803,1.7788,1.779,1.7868,1.7869,1.787,1.7869,0,0,0,0,0,0,1.7589,1.7599,1.7611,1.764,1.7651,1.7696,1.7693,1.7697,1.7712,1.7713,1.7741,1.7745,1.7757,1.7788,1.7795,1.7806,1.7792,1.7867,1.7868,1.787,1.7868,1.787,1.7871,0,0,0,0,0,1.7586,1.7607,1.7611,1.7619,1.7665,1.7696,1.7702,1.7717,1.7713,1.7724,1.774,1.7744,1.7801,1.7791,1.7799,1.7811,1.7866,1.7868,1.7869,1.7868,1.787,1.7871,0,0,0,0,0,0,1.7577,1.7611,1.7616,1.7648,1.7669,1.7698,1.7713,1.7719,1.7741,1.774,1.7756,1.7762,1.779,1.7803,1.7792,1.7839,1.7833,1.7836,1.7829,1.7831,1.7833,1.7829,1.7794,0,0,0,0,0,1.7579,1.7602,1.7631,1.7656,1.7667,1.7688,1.7702,1.7711,1.7734,1.7742,1.7761,1.7781,1.7804,1.7818,1.784,1.787,1.7876,1.7882,1.7883,1.7885,1.7887,1.7904,1.7907,1.7875,1.7875,1.7875,0,0,1.7583,1.7604,1.7618,1.7655,1.7673,1.7696,1.7695,1.7719,1.7736,1.7746,1.7775,1.7789,1.7813,1.7842,1.7856,1.7854,1.7897,1.7887,1.7887,1.7889,1.7906,1.7909,1.7912,1.7876,1.7876,1.7876,0,0,1.7602,1.7621,1.7644,1.7662,1.7689,1.7703,1.7709,1.7737,1.7748,1.7777,1.7784,1.7804,1.7843,1.786,1.7873,1.7899,1.7903,1.7905,1.7914,1.793,1.7932,1.7935,1.7944,1.7947,1.7908,1.7908,1.7908,0,1.7603,1.7639,1.7655,1.768,1.7695,1.7706,1.773,1.7746,1.7778,1.7789,1.7786,1.7835,1.7852,1.7885,1.7892,1.7902,1.7909,1.7903,1.7931,1.7933,1.7936,1.7945,1.7949,1.7908,1.7908,1.7908,1.7908,0,1.7639,1.7664,1.768,1.7712,1.773,1.7753,1.7772,1.7788,1.7796,1.781,1.7839,1.786,1.7887,1.7895,1.7903,1.793,1.7928,1.7928,1.7923,1.7939,1.7948,1.7951,1.7908,1.7908,1.7908,1.7908,0,0,1.7654,1.7696,1.7702,1.7717,1.7748,1.7767,1.779,1.7818,1.7831,1.7853,1.7873,1.7905,1.7906,1.7921,1.793,1.7945,1.7964,1.7943,1.7944,1.7947,1.7996,1.7996,1.8,1.7967,1.7968,1.7968,1.7994,0,1.7678,1.7722,1.7738,1.7774,1.7797,1.7807,1.7828,1.7849,1.7862,1.7883,1.7897,1.7921,1.7919,1.7929,1.7943,1.7959,1.7974,1.7957,1.7986,1.7986,1.798,1.8005,1.8005,1.8028,1.7998,1.7998,1.7999,0,1.7711,1.7735,1.7774,1.7802,1.7813,1.7831,1.7858,1.7877,1.7901,1.791,1.7927,1.7936,1.796,1.7953,1.7987,1.7975,1.7987,1.7997,1.7998,1.8002,1.7994,1.8009,1.8036,1.804,1.8004,1.8004,1.8003,0,1.7718,1.776,1.7789,1.7802,1.7836,1.7849,1.7863,1.7886,1.7901,1.7924,1.7934,1.7959,1.7972,1.799,1.8005,1.7999,1.8037,1.8032,1.8045,1.8045,1.8053,1.8053,1.8083,1.806,1.806,1.806,1.806,0,1.7743,1.7767,1.7793,1.7811,1.7838,1.7855,1.788,1.7895,1.7915,1.7936,1.7945,1.7964,1.7982,1.8003,1.8014,1.804,1.8046,1.8053,1.8056,1.8053,1.8052,1.8062,1.806,1.8061,1.8061,1.8061,1.8061,0,1.7756,1.7775,1.7808,1.7837,1.7845,1.7864,1.7889,1.7906,1.792,1.7946,1.7952,1.7974,1.7999,1.8015,1.8047,1.8054,1.8083,1.8085,1.8076,1.8077,1.809,1.8089,1.8128,1.8134,1.8107,1.8107,1.8107,0,1.7771,1.779,1.7822,1.7837,1.7852,1.7876,1.7892,1.7909,1.7925,1.7954,1.7967,1.7993,1.8015,1.8054,1.8072,1.8096,1.8099,1.8111,1.8102,1.8099,1.8099,1.8098,1.81,1.8112,1.8112,1.8112,1.8113,0,1.7795,1.7804,1.7828,1.7855,1.7874,1.7896,1.7918,1.7929,1.795,1.7967,1.7994,1.8011,1.8043,1.8069,1.8094,1.8108,1.8114,1.8115,1.812,1.8117,1.8111,1.8115,1.808,1.8114,1.8114,1.8114,1.8114,1.8114,1.781,1.7828,1.7853,1.7879,1.7898,1.7918,1.7936,1.7953,1.7976,1.8005,1.8013,1.804,1.8063,1.8098,1.8112,1.8133,1.8132,1.8138,1.814,1.8141,1.8142,1.8107,1.8138,1.8138,1.8138,1.8138,1.8138,0,1.7836,1.7853,1.7877,1.7908,1.7928,1.7933,1.7957,1.7973,1.7998,1.8019,1.8041,1.8071,1.8096,1.8116,1.8141,1.8154,1.8157,1.816,1.8159,1.8162,1.8141,1.8135,1.8157,1.8157,1.8157,1.8157,1.8157,1.8157,1.7851,1.7881,1.7893,1.7931,1.7948,1.7976,1.799,1.8008,1.8025,1.8059,1.808,1.8094,1.8114,1.8141,1.8164,1.8169,1.8178,1.818,1.8186,1.8166,1.8164,1.8162,1.8156,1.8182,1.8182,1.8206,1.8206,1.8206]}]]